Showing default

CENTISPACE-1 S12, 62581

Orbit data source: Space-Track

CENTISPACE-1 S12, 62581 is a payload satellite owned by Centispace (CN) in LEO that was launched on Mon, 13 Jan 2025 UTC via a JIELONG-3 launch vehicle from the Yellow Sea Launch Area, China (YSLA). Payload-class satellites include a variety of spacecraft equipped with specific instruments for various scientific and technological missions. These include communications satellites like Starlink; space stations such as the ISS; scientific satellites like the Hubble; Earth observation satellites from companies like Planet Labs, Umbra, and HawkEye 360; GPS; miniature CubeSats for education and research; and military/defense satellites.

Loading next visibility...
Identifier
62581, 2025-007G
Orbit
LEO
Last TLE update
9 hours ago
Origin
Manufacturer
DFH Shenzhen
Mission
Operational Commercial Nav/Com
Bus & Motor
WK01, Unknown motor
Mass
140 kg wet, 140 kg dry
Launch date (UTC)
2025-01-13 (6 months ago)
Launch vehicle
JIELONG-3
Launch site
Yellow Sea Launch Area, China (YSLA)
Object type
Payload
Rocket body
Debris
Shape & HBR
Box + 2 Pan, 2 m
Radar Cross Section
0.833 m², Medium (>0.1 m² and < 1m²)

Expand to show TLE details & history

TLE from 9 hours ago
0 CENTISPACE-1 S12
1 62581U 25007G   25184.18675501  .00000371  00000-0  84196-4 0  9992
2 62581  54.9770 149.2581 0012818 338.8528  21.1940 14.75832473 25269
Epoch: 2025-07-03T04:28Z
TLE epoch observation values (Epoch: 2025-07-03T04:28:55.632Z)
Latitude
-0.00006°
Longitude
160.56915°
Altitude
635.188 km
Speed
7.546 km/s
True Right ascension
09h 57m 01s
True Declination
0° 00' 00"
Sunlit
Object was in daylight at epoch
Visualization orbit readout
Latitude
-5.09854°
Longitude
-17.39235°
Altitude
652.439 km
Speed
7.528 km/s
Apparent Right ascension
19h 07m 42s
Apparent Declination
-42° 24' 30"
Sunlit
Object is in full shadow
Visualization observer readout
Local Sidereal Time
01:13:49
Azimuth
235.64° WSW
Elevation
-26.606°
Doppler factor
1
Orbital elements
Apogee altitude
651.476 km
Perigee altitude
633.478 km
Semi-major axis
7,020.614 km
Eccentricity
0.00128
Inclination
54.977°
RAAN
149.2581°
Arg. of periapsis
338.8528°
True anomaly
Unknown
Mean anomaly
21.194°
Eccentric anomaly
Unknown
Mean motion
3.68961 °/min
Orbital period
97.57 mins
BSTAR
0.000084196
Loading maneuver chart data...
Loading SW <> Apogee altitude chart data...
Loading historical data...
Loading historical data...
Loading historical data...
Loading historical data...
Loading historical data...
Loading historical data...
Loading historical data...

CENTISPACE-1 S12 Visibility forecast

Observer location: undefined°, undefined°

Span
Click to sort rows by Start time (UTC) header in descending order
Start Az.
Max El. time (UTC)
Max El. Az.
Max El.
End time (UTC)
End Az.
7 mins2025-07-04 00:09:59.845Z221.468° SW2025-07-04 00:12:59.845Z137.196° SSE44.768°2025-07-04 00:16:59.845Z48.767° ENE
5 mins2025-07-04 01:52:59.845Z300.18° NW2025-07-04 01:54:59.845Z335.57° NNW21.237°2025-07-04 01:57:59.845Z21.741° NNE
5 mins2025-07-04 05:18:59.845Z349.031° N2025-07-04 05:20:59.845Z19.331° NNE17.22°2025-07-04 05:23:59.845Z61.212° ENE
7 mins2025-07-04 06:59:59.845Z322.535° NNW2025-07-04 07:02:59.845Z19.396° NNE40.976°2025-07-04 07:06:59.845Z118.607° SE
5 mins2025-07-04 08:41:59.845Z272.957° WNW2025-07-04 08:43:59.845Z242.82° WSW19.081°2025-07-04 08:46:59.845Z196.317° SSW
|